UAL154 PKMJ-PKWA

Flight info

Callsign UAL154
Flight time 0h 39m
Altitude 28000
Route OREEO
Aircraft B38M/M-SDE1FGHILORVWXY/HB1

Departure

Time 2026-04-20 23:38
Airport Marshall Islands International Airport (PKMJ)

Arrival

Time 2026-04-21 00:17
Airport Bucholz Army Air Field (PKWA)
Time Latitude Longitude Altitude Speed Heading
2026-04-20 23:26 7.06844 171.28202 20 ft 0 kts 250°
2026-04-20 23:34 7.06841 171.28197 68 ft 2 kts 237°
2026-04-20 23:35 7.06818 171.28190 -8 ft 6 kts 172°
2026-04-20 23:35 7.06713 171.28073 18 ft 21 kts 256°
2026-04-20 23:35 7.06678 171.27921 19 ft 25 kts 257°
2026-04-20 23:36 7.06633 171.27729 23 ft 32 kts 255°
2026-04-20 23:36 7.06572 171.27479 19 ft 41 kts 256°
2026-04-20 23:36 7.06497 171.27182 19 ft 46 kts 256°
2026-04-20 23:36 7.06419 171.26866 19 ft 47 kts 256°
2026-04-20 23:37 7.06340 171.26548 14 ft 47 kts 256°
2026-04-20 23:37 7.06282 171.26267 16 ft 35 kts 266°
2026-04-20 23:37 7.06247 171.26167 16 ft 6 kts 127°
2026-04-20 23:37 7.06260 171.26221 16 ft 22 kts 74°
2026-04-20 23:38 7.06370 171.26666 17 ft 106 kts 76°
2026-04-20 23:38 7.06606 171.27609 32 ft 168 kts 75°
2026-04-20 23:38 7.06893 171.28849 476 ft 191 kts 78°
2026-04-20 23:38 7.07467 171.30063 1186 ft 205 kts 45°
2026-04-20 23:39 7.08832 171.30754 1648 ft 244 kts
2026-04-20 23:39 7.10608 171.30553 2364 ft 270 kts 336°
2026-04-20 23:39 7.12081 171.29368 3552 ft 276 kts 303°
2026-04-20 23:39 7.12671 171.27578 4937 ft 269 kts 272°
2026-04-20 23:40 7.12707 171.25806 6733 ft 235 kts 271°
2026-04-20 23:40 7.12748 171.24228 8097 ft 227 kts 271°
2026-04-20 23:40 7.12798 171.22504 8175 ft 272 kts 272°
2026-04-20 23:40 7.13342 171.20541 8341 ft 303 kts 300°
2026-04-20 23:41 7.14312 171.18722 9766 ft 291 kts 293°
2026-04-20 23:41 7.15127 171.16821 10562 ft 303 kts 292°
2026-04-20 23:41 7.15981 171.14810 11049 ft 323 kts 292°
2026-04-20 23:41 7.16894 171.12656 11489 ft 344 kts 292°
2026-04-20 23:42 7.17863 171.10371 11917 ft 365 kts 292°
2026-04-20 23:42 7.18876 171.07982 12342 ft 384 kts 292°
2026-04-20 23:42 7.19926 171.05507 12917 ft 397 kts 292°
2026-04-20 23:42 7.21025 171.02919 13693 ft 404 kts 292°
2026-04-20 23:43 7.22135 171.00310 14463 ft 408 kts 292°
2026-04-20 23:43 7.23257 170.97670 15193 ft 413 kts 292°
2026-04-20 23:43 7.24398 170.94989 15932 ft 417 kts 292°
2026-04-20 23:43 7.25544 170.92294 16646 ft 421 kts 292°
2026-04-20 23:44 7.26702 170.89568 17347 ft 425 kts 292°
2026-04-20 23:44 7.27870 170.86820 18017 ft 430 kts 293°
2026-04-20 23:44 7.29055 170.84033 18594 ft 434 kts 293°
2026-04-20 23:44 7.30248 170.81224 19151 ft 438 kts 293°
2026-04-20 23:45 7.31447 170.78403 19688 ft 441 kts 293°
2026-04-20 23:45 7.32655 170.75558 20203 ft 444 kts 293°
2026-04-20 23:45 7.33878 170.72677 20689 ft 448 kts 293°
2026-04-20 23:45 7.35108 170.69780 21138 ft 451 kts 293°
2026-04-20 23:46 7.36344 170.66869 21569 ft 454 kts 293°
2026-04-20 23:46 7.37589 170.63935 21985 ft 457 kts 293°
2026-04-20 23:46 7.38844 170.60977 22374 ft 460 kts 293°
2026-04-20 23:46 7.40105 170.58005 22754 ft 462 kts 293°
2026-04-20 23:47 7.41366 170.55030 23109 ft 465 kts 293°
2026-04-20 23:47 7.42642 170.52020 23464 ft 467 kts 293°
2026-04-20 23:47 7.43925 170.48994 23756 ft 470 kts 293°
2026-04-20 23:47 7.45325 170.46011 24045 ft 472 kts 298°
2026-04-20 23:48 7.46820 170.43075 24335 ft 473 kts 297°
2026-04-20 23:48 7.48307 170.40114 24616 ft 475 kts 297°
2026-04-20 23:48 7.49803 170.37117 24896 ft 477 kts 297°
2026-04-20 23:48 7.51295 170.34122 25175 ft 479 kts 297°
2026-04-20 23:49 7.52789 170.31121 25448 ft 481 kts 297°
2026-04-20 23:49 7.54289 170.28109 25717 ft 483 kts 297°
2026-04-20 23:49 7.55797 170.25079 25989 ft 484 kts 297°
2026-04-20 23:49 7.57296 170.22065 26243 ft 486 kts 297°
2026-04-20 23:50 7.58812 170.19018 26486 ft 488 kts 297°
2026-04-20 23:50 7.60333 170.15960 26736 ft 490 kts 297°
2026-04-20 23:50 7.61864 170.12882 26982 ft 491 kts 297°
2026-04-20 23:50 7.63395 170.09802 27199 ft 493 kts 297°
2026-04-20 23:51 7.64932 170.06709 27444 ft 494 kts 297°
2026-04-20 23:51 7.66477 170.03602 27712 ft 495 kts 297°
2026-04-20 23:51 7.68019 170.00497 27922 ft 496 kts 297°
2026-04-20 23:51 7.69569 169.97377 27942 ft 501 kts 297°
2026-04-20 23:52 7.71135 169.94223 27934 ft 505 kts 297°
2026-04-20 23:52 7.72710 169.91052 27934 ft 504 kts 297°
2026-04-20 23:52 7.74270 169.87908 27938 ft 496 kts 297°
2026-04-20 23:52 7.75809 169.84806 27938 ft 493 kts 297°
2026-04-20 23:53 7.77342 169.81719 27937 ft 493 kts 297°
2026-04-20 23:53 7.78877 169.78625 27937 ft 493 kts 297°
2026-04-20 23:53 7.80408 169.75536 27940 ft 493 kts 297°
2026-04-20 23:53 7.81945 169.72436 27938 ft 493 kts 297°
2026-04-20 23:54 7.83475 169.69351 27936 ft 493 kts 297°
2026-04-20 23:54 7.85010 169.66254 27936 ft 493 kts 297°
2026-04-20 23:54 7.86534 169.63178 27935 ft 493 kts 297°
2026-04-20 23:54 7.88077 169.60064 27938 ft 493 kts 297°
2026-04-20 23:55 7.89604 169.56982 27940 ft 493 kts 297°
2026-04-20 23:55 7.91135 169.53889 27939 ft 493 kts 297°
2026-04-20 23:55 7.92674 169.50780 27936 ft 493 kts 297°
2026-04-20 23:55 7.94129 169.47840 27939 ft 493 kts 297°
2026-04-20 23:56 7.95720 169.44625 27933 ft 493 kts 297°
2026-04-20 23:56 7.97248 169.41538 27936 ft 493 kts 297°
2026-04-20 23:56 7.97743 169.40536 27936 ft 493 kts 297°
2026-04-20 23:57 7.98020 169.39976 27938 ft 493 kts 297°
2026-04-20 23:57 7.99557 169.36869 27935 ft 493 kts 297°
2026-04-20 23:57 8.01092 169.33765 27935 ft 493 kts 297°
2026-04-20 23:57 8.02622 169.30670 27932 ft 493 kts 297°
2026-04-20 23:58 8.04148 169.27583 27935 ft 493 kts 297°
2026-04-20 23:58 8.05683 169.24477 27935 ft 493 kts 297°
2026-04-20 23:58 8.07202 169.21401 27447 ft 491 kts 297°
2026-04-20 23:58 8.08744 169.18279 26207 ft 498 kts 297°
2026-04-20 23:59 8.10280 169.15168 25559 ft 493 kts 297°
2026-04-20 23:59 8.11801 169.12088 24879 ft 489 kts 297°
2026-04-20 23:59 8.13319 169.09013 24164 ft 487 kts 297°
2026-04-20 23:59 8.14818 169.05972 23435 ft 485 kts 296°
2026-04-21 00:00 8.16315 169.02939 22740 ft 480 kts 296°
2026-04-21 00:00 8.17801 168.99927 22010 ft 476 kts 296°
2026-04-21 00:00 8.19275 168.96938 21368 ft 472 kts 296°
2026-04-21 00:00 8.20726 168.93995 20724 ft 467 kts 296°
2026-04-21 00:01 8.22169 168.91068 20036 ft 465 kts 296°
2026-04-21 00:01 8.23599 168.88165 19519 ft 458 kts 296°
2026-04-21 00:01 8.25015 168.85291 18735 ft 459 kts 296°
2026-04-21 00:01 8.26429 168.82422 18215 ft 453 kts 296°
2026-04-21 00:02 8.27819 168.79599 17689 ft 446 kts 296°
2026-04-21 00:02 8.29175 168.76846 17183 ft 440 kts 296°
2026-04-21 00:02 8.30542 168.74069 16651 ft 434 kts 296°
2026-04-21 00:02 8.31862 168.71387 16087 ft 431 kts 296°
2026-04-21 00:03 8.33189 168.68691 15537 ft 427 kts 296°
2026-04-21 00:03 8.34506 168.66014 15015 ft 423 kts 296°
2026-04-21 00:03 8.35814 168.63355 14502 ft 419 kts 296°
2026-04-21 00:03 8.37108 168.60724 13986 ft 416 kts 296°
2026-04-21 00:04 8.38387 168.58121 13467 ft 413 kts 296°
2026-04-21 00:04 8.39657 168.55537 12983 ft 408 kts 296°
2026-04-21 00:04 8.40907 168.52995 12568 ft 402 kts 296°
2026-04-21 00:04 8.42140 168.50486 12181 ft 395 kts 296°
2026-04-21 00:05 8.43345 168.48032 11812 ft 384 kts 296°
2026-04-21 00:05 8.44514 168.45653 11301 ft 374 kts 296°
2026-04-21 00:05 8.45659 168.43322 10909 ft 361 kts 296°
2026-04-21 00:05 8.46743 168.41113 10738 ft 344 kts 296°
2026-04-21 00:06 8.47784 168.38995 10526 ft 332 kts 296°
2026-04-21 00:06 8.48791 168.36941 10356 ft 318 kts 296°
2026-04-21 00:06 8.49746 168.34996 10250 ft 298 kts 296°
2026-04-21 00:06 8.50638 168.33179 10141 ft 281 kts 296°
2026-04-21 00:07 8.51489 168.31443 9932 ft 274 kts 296°
2026-04-21 00:07 8.52340 168.29710 9638 ft 278 kts 296°
2026-04-21 00:07 8.53211 168.27934 9324 ft 282 kts 296°
2026-04-21 00:07 8.54086 168.26150 9018 ft 283 kts 296°
2026-04-21 00:08 8.54963 168.24364 8718 ft 284 kts 296°
2026-04-21 00:08 8.55835 168.22584 8418 ft 282 kts 296°
2026-04-21 00:08 8.56705 168.20810 8123 ft 281 kts 296°
2026-04-21 00:08 8.57569 168.19047 7829 ft 279 kts 296°
2026-04-21 00:09 8.58426 168.17299 7535 ft 277 kts 296°
2026-04-21 00:09 8.59279 168.15560 7235 ft 276 kts 296°
2026-04-21 00:09 8.60129 168.13825 6956 ft 275 kts 296°
2026-04-21 00:09 8.60975 168.12099 6668 ft 273 kts 296°
2026-04-21 00:10 8.61803 168.10409 6387 ft 272 kts 296°
2026-04-21 00:10 8.62648 168.08683 6068 ft 272 kts 296°
2026-04-21 00:10 8.63482 168.06981 5753 ft 271 kts 296°
2026-04-21 00:10 8.64312 168.05286 5470 ft 269 kts 296°
2026-04-21 00:11 8.65138 168.03599 5193 ft 267 kts 296°
2026-04-21 00:11 8.65962 168.01918 4905 ft 265 kts 296°
2026-04-21 00:11 8.66781 168.00247 4635 ft 264 kts 296°
2026-04-21 00:11 8.67593 167.98589 4342 ft 263 kts 296°
2026-04-21 00:12 8.68398 167.96944 4075 ft 261 kts 296°
2026-04-21 00:12 8.69232 167.95339 3925 ft 253 kts 306°
2026-04-21 00:12 8.70521 167.94198 3733 ft 246 kts 333°
2026-04-21 00:12 8.72118 167.93582 3420 ft 246 kts 341°
2026-04-21 00:13 8.73733 167.93040 3157 ft 241 kts 342°
2026-04-21 00:13 8.75256 167.92432 2993 ft 230 kts 326°
2026-04-21 00:13 8.76303 167.91306 2920 ft 215 kts 298°
2026-04-21 00:13 8.76767 167.89924 2818 ft 200 kts 276°
2026-04-21 00:14 8.76725 167.88583 2701 ft 182 kts 259°
2026-04-21 00:14 8.76408 167.87381 2580 ft 176 kts 252°
2026-04-21 00:14 8.76047 167.86251 2384 ft 162 kts 252°
2026-04-21 00:14 8.75715 167.85186 2189 ft 157 kts 252°
2026-04-21 00:15 8.75392 167.84142 1997 ft 155 kts 252°
2026-04-21 00:15 8.75071 167.83096 1810 ft 155 kts 252°
2026-04-21 00:15 8.74750 167.82055 1613 ft 155 kts 252°
2026-04-21 00:15 8.74431 167.81018 1405 ft 155 kts 253°
2026-04-21 00:16 8.74113 167.79972 1169 ft 157 kts 252°
2026-04-21 00:16 8.73784 167.78894 1016 ft 163 kts 252°
2026-04-21 00:16 8.73449 167.77787 821 ft 164 kts 253°
2026-04-21 00:16 8.73133 167.76718 590 ft 156 kts 253°
2026-04-21 00:17 8.72805 167.75678 332 ft 156 kts 252°
2026-04-21 00:17 8.72471 167.74633 155 ft 156 kts 252°
2026-04-21 00:17 8.72149 167.73604 28 ft 138 kts 253°
2026-04-21 00:17 8.71973 167.73048 26 ft 47 kts 255°
2026-04-21 00:18 8.72039 167.72886 26 ft 25 kts 32°
2026-04-21 00:18 8.72093 167.73045 28 ft 26 kts 65°
2026-04-21 00:18 8.72108 167.73102 27 ft 25 kts 90°
2026-04-21 00:18 8.72127 167.73180 26 ft 0 kts 72°
2026-04-21 00:19 8.72129 167.73187 26 ft 4 kts 72°
2026-04-21 00:19 8.72156 167.73269 26 ft 20 kts 71°
2026-04-21 00:19 8.72209 167.73432 26 ft 27 kts 72°
2026-04-21 00:20 8.72265 167.73617 27 ft 28 kts 72°
2026-04-21 00:20 8.72306 167.73743 27 ft 29 kts 69°
2026-04-21 00:20 8.72408 167.73943 26 ft 17 kts 37°
2026-04-21 00:20 8.72436 167.73951 26 ft 0 kts 345°
2026-04-21 00:21 8.72491 167.73931 26 ft 19 kts 342°
2026-04-21 00:21 8.72571 167.73995 26 ft 14 kts 81°
2026-04-21 00:21 8.72573 167.74004 26 ft 0 kts 75°
2026-04-21 00:22 8.72573 167.74005 26 ft 0 kts 75°
2026-04-21 00:22 8.72582 167.74040 26 ft 8 kts 76°
2026-04-21 00:22 8.72596 167.74112 26 ft 10 kts 59°
2026-04-21 00:22 8.72651 167.74154 27 ft 7 kts 27°
2026-04-21 00:23 8.72665 167.74161 26 ft 0 kts 25°